Location: Cisewo
(53.3833°N, 14.9000°E)
Time: 10:59:50
(UTC+00:00)

Lacrosse 5 rocket - Pass Details

Date: 18 April 2021
Orbit: 460 x 634 km, 57.0° (Epoch: 15 May)

Event Time Altitude Azimuth Distance (km) Brightness Sun altitude
Rises 21:05:48 0° 286° (WNW) 2,741 5.6 -21.1°
Reaches altitude 10° 21:08:02 10° 291° (WNW) 1,874 4.7 -21.2°
Maximum altitude 21:12:15 57° 11° (N) 700 2.0 -21.5°
Enters shadow 21:14:17 29° 78° (ENE) 1,108 2.7 -21.7°
